Temp
13 13 13 12 12 12 12 12 12 12 12 12 12 13 13 13 13 13 13 13 12 12 12 12 12 12 13 13 13 13 13 13 13 12 12 12 12 12 12 12 12 12
14 13 13 12 12 12 12 11 12 12 12 12 13 13 13 13 13 13 12 12 12 12 12 11 12 12 13 13 13 13 13 12 12 12 12 12 12 12 12 12 12 12
14 14 13 12 12 12 11 11 12 12 12 13 13 13 13 13 13 12 12 12 12 12 12 12 12 13 13 13 13 13 13 12 12 12 12 13 12 12 12 12 12 12
14 13 12 11 11 11 11 11 12 12 12 13 13 13 13 13 13 13 12 12 12 12 12 12 12 13 13 13 13 13 13 12 12 12 12 13 13 13 12 12 12 12
12 12 11 11 11 11 11 11 11 12 12 12 13 13 13 13 13 13 12 12 12 12 12 12 12 13 12 12 12 13 12 12 12 12 12 12 12 12 12 12 12 12
11 11 11 11 11 11 11 11 11 12 12 12 12 13 13 13 13 13 13 13 13 12 12 13 12 13 12 12 12 12 12 12 12 12 12 12 12 12 12 12 12 12
10 10 11 11 11 11 11 11 11 12 12 12 12 12 13 13 13 13 13 13 12 12 12 13 12 13 12 12 12 12 12 12 12 12 12 12 12 12 12 12 12 12
10 10 10 10 11 11 11 11 11 11 12 12 12 12 12 12 12 12 12 12 12 12 12 12 12 12 12 12 12 13 13 12 12 12 12 12 12 12 12 12 12 12
9 10 10 10 11 11 10 10 11 11 11 12 12 12 12 12 12 12 12 12 12 12 12 12 12 12 12 12 12 12 12 12 12 12 12 11 12 12 12 12 12 12
10 10 9 10 10 11 10 10 10 11 11 11 11 11 11 11 12 12 12 12 12 12 12 12 12 13 13 13 13 12 12 12 12 12 12 12 12 12 12 12 12 12
11 10 10 10 10 11 11 10 10 10 11 11 11 11 11 11 11 11 11 12 12 12 12 12 12 12 13 13 12 12 12 12 12 12 12 12 12 11 12 12 12 12
10 10 9 10 11 11 11 11 10 10 10 10 10 10 10 11 11 11 11 11 11 11 11 12 12 12 12 12 12 12 12 12 11 11 12 12 12 12 12 12 12 12
9 9 9 9 10 11 11 11 11 10 10 10 10 10 10 10 10 11 11 11 11 11 11 11 11 11 12 11 12 12 11 11 11 11 11 11 12 12 12 12 12 12
7 8 9 9 10 11 11 11 10 10 9 9 9 10 10 10 10 10 10 10 11 11 11 11 11 11 11 11 11 11 11 11 11 11 11 11 11 11 11 12 12 12
7 8 9 10 10 11 10 10 9 9 9 9 9 9 9 9 10 10 10 10 10 10 10 11 11 11 11 11 11 11 11 11 11 11 11 11 11 11 11 11 11 11
7 8 9 9 9 9 9 8 8 8 9 9 9 9 9 9 9 9 9 10 10 10 10 11 11 11 11 11 11 11 11 11 12 12 12 12 12 11 11 11 11 12
8 9 9 8 8 8 8 8 8 9 9 9 8 8 8 8 9 9 9 9 9 10 10 10 10 10 10 10 10 10 11 11 11 12 12 12 12 12 11 11 12 12
8 8 8 7 7 7 8 8 9 9 9 9 9 8 8 9 9 9 10 9 9 9 9 10 10 10 10 10 10 10 11 11 11 11 11 11 12 12 12 12 11 12
8 8 7 7 7 8 8 9 9 9 9 9 9 9 9 9 9 9 9 9 9 9 9 9 9 9 10 10 10 10 10 11 11 11 11 11 11 11 11 11 11 11
8 8 7 6 7 7 8 9 9 8 8 9 9 9 9 9 9 9 9 9 9 9 9 9 9 9 9 10 10 10 10 10 10 11 11 11 11 11 11 11 11 11
8 7 7 6 6 7 8 8 8 8 8 8 8 9 9 8 8 9 9 9 9 9 9 9 9 9 9 9 10 10 10 10 10 10 10 10 10 10 11 11 11 10
6 7 7 7 7 8 8 8 8 8 7 7 8 8 8 8 8 8 8 8 8 9 9 9 9 9 9 9 9 9 10 10 10 11 11 10 10 10 10 10 10 9
6 6 6 7 7 7 7 7 7 7 6 7 7 8 8 8 7 7 7 7 8 8 8 9 8 8 8 8 8 8 9 9 10 10 10 10 10 10 10 10 9 9
6 6 6 6 6 6 6 6 6 6 6 6 7 7 7 7 7 7 7 7 7 7 7 7 7 7 7 8 8 8 8 8 8 8 9 9 9 9 9 9 10 9
6 6 6 6 6 5 5 5 5 5 5 5 6 6 6 6 6 7 6 6 5 6 6 6 6 6 6 7 7 7 7 7 7 7 7 7 7 8 8 8 9 9
5 5 6 6 5 5 5 5 5 5 5 5 5 5 5 5 6 6 6 5 5 5 5 6 6 6 6 6 6 6 7 7 7 7 6 6 7 7 7 7 8 8
Height
1528 1528 1527 1526 1526 1525 1524 1523 1522 1521 1520 1518 1517 1516 1514 1512 1511 1509 1507 1505 1503 1501 1500 1499 1499 1499 1499 1499 1499 1499 1499 1499 1499 1500 1500 1501 1502 1504 1504 1505 1507 1509
1527 1526 1525 1524 1524 1523 1522 1521 1520 1519 1518 1517 1516 1514 1512 1510 1508 1506 1503 1501 1499 1498 1497 1496 1496 1496 1496 1495 1495 1495 1496 1496 1497 1497 1497 1497 1499 1500 1501 1502 1504 1506
1525 1524 1523 1522 1522 1521 1520 1519 1519 1518 1517 1516 1514 1512 1510 1508 1506 1504 1501 1499 1496 1495 1494 1494 1494 1494 1493 1492 1491 1491 1492 1493 1494 1494 1494 1494 1494 1495 1497 1499 1501 1503
1523 1522 1521 1521 1520 1520 1519 1518 1517 1516 1515 1514 1513 1511 1509 1506 1504 1502 1500 1498 1496 1494 1493 1492 1491 1491 1490 1490 1489 1488 1489 1491 1492 1492 1491 1491 1491 1492 1493 1496 1498 1501
1522 1521 1520 1520 1519 1519 1518 1517 1516 1515 1514 1513 1512 1510 1507 1505 1502 1500 1498 1496 1494 1492 1491 1490 1489 1488 1488 1488 1487 1487 1487 1489 1490 1490 1489 1489 1490 1491 1492 1494 1496 1498
1522 1521 1520 1519 1518 1518 1517 1516 1515 1514 1513 1512 1510 1509 1506 1504 1502 1500 1498 1495 1493 1491 1490 1488 1487 1487 1486 1486 1486 1486 1487 1488 1488 1488 1488 1485 1487 1491 1492 1493 1495 1497
1521 1520 1519 1518 1518 1517 1516 1515 1515 1514 1513 1511 1510 1508 1506 1503 1502 1500 1497 1495 1492 1491 1489 1487 1486 1486 1485 1485 1485 1485 1486 1487 1487 1488 1488 1486 1488 1492 1493 1494 1495 1496
1521 1519 1519 1518 1517 1517 1516 1515 1515 1513 1512 1511 1509 1507 1505 1503 1502 1500 1498 1495 1493 1491 1489 1488 1487 1486 1486 1485 1485 1485 1486 1488 1488 1489 1490 1490 1491 1493 1493 1493 1495 1496
1520 1519 1519 1518 1517 1517 1515 1515 1514 1513 1512 1511 1509 1507 1505 1504 1502 1500 1498 1496 1495 1493 1491 1489 1488 1487 1486 1486 1486 1486 1487 1489 1490 1490 1490 1491 1492 1493 1493 1494 1495 1496
1519 1518 1518 1517 1516 1516 1515 1514 1513 1512 1512 1511 1509 1508 1506 1504 1503 1501 1499 1497 1496 1494 1492 1491 1490 1488 1488 1488 1487 1487 1488 1489 1490 1490 1490 1491 1492 1493 1493 1494 1495 1495
1518 1517 1517 1517 1516 1515 1514 1514 1513 1512 1511 1510 1509 1508 1506 1505 1503 1502 1500 1498 1497 1495 1494 1492 1491 1490 1489 1489 1488 1489 1490 1490 1490 1490 1491 1491 1492 1493 1493 1493 1494 1496
1518 1517 1517 1516 1516 1515 1515 1514 1513 1512 1512 1510 1509 1508 1507 1506 1504 1503 1501 1500 1498 1497 1495 1494 1493 1492 1491 1490 1490 1490 1491 1491 1491 1491 1491 1492 1494 1494 1494 1494 1495 1496
1518 1518 1517 1517 1516 1516 1515 1514 1513 1513 1512 1511 1510 1509 1508 1506 1505 1504 1502 1501 1499 1498 1497 1496 1494 1494 1493 1493 1492 1492 1492 1492 1492 1492 1492 1493 1494 1495 1495 1496 1496 1497
1520 1519 1518 1518 1517 1516 1516 1515 1514 1513 1513 1512 1511 1509 1509 1507 1506 1505 1504 1502 1501 1499 1498 1497 1496 1495 1495 1495 1494 1493 1493 1493 1493 1494 1494 1494 1494 1495 1496 1497 1497 1498
1521 1521 1519 1519 1518 1517 1516 1515 1515 1514 1513 1512 1512 1511 1510 1509 1508 1507 1505 1504 1503 1501 1500 1499 1498 1497 1497 1497 1496 1496 1495 1495 1495 1495 1495 1495 1495 1495 1496 1497 1498 1498
1523 1522 1521 1520 1519 1518 1517 1517 1516 1516 1514 1513 1512 1512 1511 1510 1509 1508 1507 1505 1504 1503 1502 1501 1500 1499 1499 1499 1498 1498 1498 1497 1497 1496 1496 1495 1495 1496 1496 1497 1497 1498
1523 1523 1522 1521 1520 1520 1519 1519 1518 1517 1516 1515 1514 1513 1512 1511 1511 1510 1508 1507 1506 1505 1504 1502 1502 1502 1501 1501 1500 1500 1499 1498 1498 1498 1497 1497 1496 1496 1496 1496 1497 1497
1525 1524 1523 1522 1522 1521 1521 1521 1520 1519 1518 1517 1516 1515 1514 1513 1512 1511 1510 1510 1509 1508 1506 1505 1504 1504 1503 1502 1502 1501 1501 1500 1500 1499 1498 1498 1498 1497 1497 1497 1497 1498
1526 1525 1524 1524 1523 1523 1523 1523 1522 1521 1520 1519 1518 1518 1517 1515 1514 1513 1512 1512 1511 1510 1509 1508 1507 1506 1505 1504 1503 1503 1502 1501 1501 1500 1500 1499 1499 1499 1499 1498 1498 1499
1527 1526 1526 1525 1525 1525 1525 1524 1523 1522 1522 1521 1520 1519 1518 1517 1516 1515 1514 1514 1513 1512 1511 1510 1509 1508 1507 1506 1505 1504 1504 1503 1502 1502 1501 1501 1501 1501 1500 1500 1501 1500
1529 1528 1527 1527 1526 1526 1526 1525 1525 1524 1523 1522 1521 1520 1520 1519 1518 1517 1516 1515 1515 1514 1513 1512 1511 1510 1509 1508 1507 1506 1505 1504 1504 1503 1503 1504 1504 1504 1503 1503 1503 1502
1531 1530 1529 1529 1528 1528 1527 1526 1526 1525 1525 1524 1523 1522 1521 1520 1519 1519 1518 1517 1516 1516 1515 1514 1513 1513 1511 1510 1509 1508 1506 1505 1505 1505 1505 1505 1506 1506 1506 1506 1506 1505
1533 1532 1531 1531 1530 1529 1529 1528 1528 1527 1526 1526 1525 1523 1522 1522 1521 1520 1520 1519 1518 1517 1516 1515 1515 1514 1514 1512 1511 1510 1509 1507 1506 1506 1506 1506 1506 1507 1507 1508 1508 1508
1535 1534 1533 1533 1532 1531 1531 1531 1530 1529 1528 1527 1526 1525 1524 1524 1523 1522 1521 1520 1519 1519 1518 1517 1516 1516 1515 1514 1513 1513 1511 1510 1509 1509 1508 1508 1508 1508 1507 1508 1508 1509
1536 1536 1535 1534 1534 1534 1533 1533 1532 1531 1531 1529 1528 1527 1526 1526 1526 1525 1523 1522 1522 1521 1521 1520 1519 1518 1517 1517 1516 1515 1514 1513 1512 1512 1511 1511 1510 1510 1509 1509 1509 1509
1538 1538 1537 1536 1536 1536 1535 1535 1534 1533 1533 1531 1530 1529 1529 1528 1528 1527 1525 1525 1524 1524 1523 1522 1522 1521 1520 1519 1518 1517 1517 1516 1515 1514 1513 1513 1513 1512 1512 1511 1510 1510
Wind_Speed
7 8 9 9 9 9 10 12 15 17 18 20 22 24 25 26 27 27 27 26 26 26 24 24 24 22 22 23 23 22 22 22 23 23 24 24 25 27 29 29 28 26
9 9 9 10 9 9 11 13 15 17 18 19 22 24 25 25 25 25 25 24 23 22 19 20 21 20 20 20 19 20 21 22 23 22 23 24 23 25 29 29 29 28
9 9 9 9 9 10 11 13 15 17 18 20 22 24 23 23 24 23 23 22 19 17 15 15 17 19 20 18 17 18 19 21 22 23 24 24 25 27 28 28 29 29
11 11 10 10 9 10 11 13 15 16 18 20 22 23 23 23 23 23 22 21 18 14 13 13 15 17 18 16 15 15 16 18 21 22 24 25 26 27 27 25 26 27
12 12 11 10 10 11 12 13 15 17 18 19 21 22 22 22 22 21 21 20 17 13 12 13 14 15 15 14 13 12 14 17 19 20 24 28 28 26 25 23 23 24
11 11 10 11 11 12 13 13 15 16 18 19 20 21 21 21 21 20 20 20 16 13 13 13 12 11 10 10 9 9 11 14 16 17 20 23 25 21 16 15 16 18
11 10 11 11 12 12 13 13 14 16 17 18 19 19 20 20 20 19 20 20 17 15 15 12 9 8 7 6 4 5 8 10 10 10 7 5 12 14 11 11 11 12
10 11 12 11 11 12 12 12 13 15 17 18 17 18 18 19 19 18 18 18 17 16 16 14 10 9 9 8 6 5 5 4 4 3 4 5 5 8 9 10 11 12
8 10 11 11 11 12 12 12 13 13 15 16 17 17 17 17 17 17 16 16 15 14 13 12 11 10 10 9 7 7 5 2 2 2 1 2 4 6 5 5 7 9
9 9 10 10 11 12 13 13 13 13 13 15 16 16 15 15 16 15 14 14 14 13 11 10 9 8 8 7 7 7 5 3 3 3 3 4 4 5 5 6 7 9
12 11 11 12 13 14 14 14 14 14 14 13 13 13 13 13 15 14 14 14 13 12 11 10 8 7 7 7 7 7 5 3 4 4 4 5 4 3 5 8 10 11
15 14 14 14 15 16 15 14 13 13 13 12 10 10 12 13 14 15 14 14 12 10 10 10 8 8 8 7 7 7 6 4 4 5 5 3 3 2 4 5 4 6
17 16 15 15 16 16 15 14 13 12 12 11 10 9 10 13 14 15 15 13 11 10 9 8 8 8 9 9 7 7 6 5 5 6 6 4 3 1 2 3 3 5
16 15 16 16 16 16 15 15 14 12 11 11 11 11 11 13 13 13 14 13 11 11 10 8 9 10 10 11 9 7 6 5 6 7 8 7 5 3 2 2 3 5
16 16 17 18 17 17 17 17 16 14 12 11 12 12 12 12 11 11 12 12 12 12 10 9 11 12 11 12 11 10 8 6 7 8 10 9 6 5 5 4 3 4
17 18 19 20 21 21 21 21 20 17 15 14 14 14 13 13 13 12 13 14 14 14 12 11 12 13 13 13 13 13 11 9 9 10 11 9 7 7 7 6 5 4
17 19 20 22 23 24 24 23 22 21 21 21 20 19 18 17 17 16 17 17 16 15 14 14 14 15 15 14 13 14 13 11 11 11 12 12 10 9 10 7 4 3
18 19 21 22 23 24 24 23 22 22 23 24 23 23 21 20 20 19 19 19 18 17 17 17 18 17 17 16 15 15 15 14 14 15 16 16 14 11 10 7 4 4
18 19 21 21 22 23 23 22 22 21 22 23 22 21 20 20 20 20 20 20 19 17 16 18 19 19 18 17 17 17 16 16 17 19 20 20 18 13 10 7 5 6
18 19 20 20 20 21 21 21 21 21 21 21 21 21 21 21 21 20 20 20 19 17 16 17 19 19 18 17 16 17 17 17 18 19 21 22 19 14 11 10 7 7
19 20 20 20 19 20 20 20 21 21 21 21 21 22 22 22 21 20 19 19 20 19 18 19 20 20 18 17 16 14 14 16 17 17 19 20 19 15 12 10 7 6
22 22 22 21 20 19 19 19 19 20 21 20 20 21 22 21 21 20 19 19 19 18 19 20 21 20 19 19 17 13 11 11 12 13 13 14 15 15 13 10 7 6
23 23 24 23 22 21 21 21 21 21 21 21 20 21 22 22 22 21 21 20 19 18 19 19 20 21 20 20 20 17 14 13 13 12 11 11 12 13 13 11 9 10
21 21 22 22 23 24 23 23 23 23 22 22 21 22 22 22 22 22 22 23 23 22 21 20 20 21 20 20 20 19 18 17 16 15 15 14 13 13 13 11 9 9
20 20 21 21 22 23 23 23 23 23 22 22 21 21 21 21 20 19 21 24 25 25 25 24 24 23 22 21 20 19 17 17 16 17 17 15 13 12 12 11 10 8
21 21 21 21 21 21 21 22 22 22 22 22 22 23 22 22 21 20 21 23 24 25 25 26 26 25 24 23 22 20 19 17 16 18 18 15 12 11 10 10 10 10
Wind_Direction
289 286 288 296 305 311 314 316 319 324 330 332 331 330 331 330 329 325 318 310 301 296 294 289 282 278 281 283 279 272 268 268 268 262 258 256 249 236 229 228 224 221
301 298 299 299 304 311 313 316 321 328 333 334 335 336 336 335 333 329 325 321 311 303 298 288 281 281 287 291 287 277 272 272 270 259 253 255 250 238 231 229 225 222
324 330 330 324 323 325 324 324 327 331 336 338 338 339 339 338 336 334 335 334 326 317 308 296 290 289 291 292 286 278 272 270 268 262 255 251 247 243 234 227 225 223
351 355 356 355 349 343 339 336 335 338 341 340 341 343 343 342 340 338 340 340 335 331 322 308 298 294 293 290 285 282 277 272 268 263 255 249 245 244 237 226 222 219
12 13 15 14 8 360 351 345 344 345 343 342 346 349 348 347 347 343 342 341 338 336 333 321 307 299 296 290 288 293 288 280 273 265 260 253 244 240 235 225 218 211
29 30 31 24 17 9 358 351 349 348 347 348 351 352 352 353 354 353 349 347 348 347 340 329 316 313 311 296 293 303 296 286 279 273 269 253 236 229 222 210 210 210
40 33 29 22 15 9 0 354 354 351 350 353 353 353 355 356 358 359 358 358 4 5 357 351 342 342 347 333 316 313 301 296 294 292 296 230 202 199 183 179 198 207
41 26 20 15 10 6 360 355 356 354 354 356 357 357 359 360 1 3 3 5 12 15 13 16 18 15 18 22 12 352 332 318 332 359 42 80 146 179 176 181 200 202
39 28 20 13 8 5 0 358 355 351 354 1 4 4 3 3 5 6 6 6 7 15 26 30 29 28 28 28 24 18 19 10 8 30 70 121 144 170 183 193 207 214
36 33 23 13 9 7 7 6 359 350 354 1 4 8 8 5 9 9 6 5 4 11 26 32 30 31 26 21 24 21 16 1 336 323 282 252 200 189 213 217 209 222
39 37 30 22 18 18 17 13 4 358 359 358 2 16 16 8 11 14 11 11 9 10 23 30 28 29 26 24 24 15 11 9 343 339 326 295 266 225 239 238 223 225
37 36 34 30 25 25 23 15 9 6 4 360 3 22 23 10 8 11 13 14 11 14 25 29 28 30 31 31 26 19 27 36 16 20 28 348 308 284 271 268 245 230
36 35 36 36 33 31 27 20 17 16 15 13 13 20 25 20 13 9 12 12 10 16 21 21 32 43 40 38 38 37 45 53 44 42 43 34 33 22 285 290 278 246
39 39 43 45 42 39 34 28 27 29 30 28 26 27 29 32 27 17 14 15 16 19 17 21 46 58 51 43 43 46 49 48 49 48 41 35 39 34 353 304 271 260
47 49 51 50 48 46 43 41 40 40 41 42 42 43 39 37 38 30 23 25 27 27 25 30 49 60 58 51 46 41 40 41 48 50 42 35 28 18 8 345 317 299
55 56 56 54 54 53 52 52 51 49 51 54 55 55 49 43 43 41 38 37 37 40 44 46 50 53 54 54 48 42 43 48 46 41 36 32 28 19 13 357 341 337
59 59 60 60 60 59 59 58 57 56 58 60 60 59 58 56 53 52 50 47 47 50 54 56 55 50 48 50 47 38 37 39 37 35 33 32 29 21 16 9 356 354
61 64 64 64 65 64 63 61 58 57 58 59 59 60 61 61 58 55 51 48 47 50 55 58 58 54 51 51 49 40 35 35 36 37 36 34 29 17 10 7 6 17
65 69 70 69 69 68 67 65 61 58 57 56 57 56 56 57 54 50 47 43 43 48 55 57 57 55 51 50 49 45 41 41 44 43 41 39 34 24 15 12 16 26
70 73 75 75 73 71 71 70 66 62 59 57 56 53 52 52 50 48 48 47 47 51 53 52 49 46 42 41 43 44 41 41 44 44 41 42 44 41 34 25 15 17
72 75 78 80 79 76 74 72 69 65 61 56 54 52 50 51 52 52 53 53 53 53 52 49 46 42 38 36 38 40 41 39 39 39 39 42 49 53 46 33 18 10
72 72 73 75 76 76 76 74 71 68 64 59 55 53 51 50 50 52 54 55 55 53 50 49 49 47 44 44 43 41 42 43 40 38 38 39 47 51 50 48 47 51
74 72 71 69 68 68 68 68 67 66 64 61 58 56 54 51 50 51 52 53 53 51 49 50 50 48 46 48 49 46 48 53 55 57 58 59 64 69 66 60 53 53
75 74 73 71 68 67 66 64 63 62 61 60 59 58 57 54 53 54 53 53 53 52 51 51 52 50 46 47 49 48 50 56 59 63 68 71 76 82 81 73 63 52
73 72 71 71 71 70 69 66 64 62 61 59 57 56 57 55 52 52 53 54 54 54 54 53 54 54 51 50 50 50 50 55 58 59 59 61 66 74 79 81 81 74
73 71 69 70 70 71 72 70 68 66 63 61 59 56 55 54 52 50 51 52 52 52 53 53 51 51 50 49 48 48 46 46 50 51 46 44 50 60 68 76 80 78